Overview Statistics Trail Chart Weather Telemetry Raw packets
 

This is the latest recevied weather packets stored in our database for station/object KK6MIG-13. If no packets are shown the sender has not sent any weather packets the latest 10 day(s).

<< 522 523 524 525 526 527 528 >>
Time Temp. Humidity Pressure Rain* Wind** Luminosity Snow
1787794992 17.78° C 14% 1012.4 hPa 0 mm - 149 W/m² -
1787794932 17.78° C 13% 1012.3 hPa 0 mm - 153 W/m² -
1787794871 17.78° C 15% 1012.4 hPa 0 mm - 156 W/m² -
1787794804 17.78° C 14% 1012.4 hPa 0 mm - 160 W/m² -
1787794745 17.78° C 14% 1012.4 hPa 0 mm - 162 W/m² -
1787794685 17.78° C 14% 1012.4 hPa 0 mm - 171 W/m² -
1787794625 17.78° C 17% 1012.4 hPa 0 mm - 172 W/m² -
1787794564 17.78° C 19% 1012.4 hPa 0 mm - 176 W/m² -
1787794500 17.78° C 19% 1012.4 hPa 0 mm - 181 W/m² -
1787794439 17.78° C 19% 1012.4 hPa 0 mm - 185 W/m² -
1787794379 17.78° C 18% 1012.4 hPa 0 mm - 192 W/m² -
1787794318 17.78° C 21% 1012.3 hPa 0 mm - 195 W/m² -
1787794258 17.78° C 22% 1012.4 hPa 0 mm - 199 W/m² -
1787794195 17.78° C 23% 1012.4 hPa 0 mm - 202 W/m² -
1787794134 17.78° C 23% 1012.4 hPa 0 mm - 206 W/m² -
1787794073 18.33° C 23% 1012.4 hPa 0 mm - 214 W/m² -
1787794013 18.33° C 23% 1012.4 hPa 0 mm - 218 W/m² -
1787793952 18.33° C 24% 1012.4 hPa 0 mm - 221 W/m² -
1787793889 18.33° C 25% 1012.4 hPa 0 mm - 225 W/m² -
1787793826 18.33° C 28% 1012.4 hPa 0 mm - 229 W/m² -
1787793766 18.33° C 29% 1012.4 hPa 0 mm - 236 W/m² -
1787793707 18.33° C 29% 1012.3 hPa 0 mm - 239 W/m² -
1787793646 18.33° C 27% 1012.4 hPa 0 mm - 241 W/m² -
1787793580 18.33° C 28% 1012.5 hPa 0 mm - 244 W/m² -
1787793537 18.33° C 27% 1012.4 hPa 0 mm - 255 W/m² -

* Rain latest hour (hover to see other rain measurements)
** Current wind speed in m/s (hover to see current wind gust speed)